This is the latest recevied weather packets stored in our database for station/object DC7RY. If no packets are shown the sender has not sent any weather packets the latest 10 day(s).
| Time | Temp. | Humidity | Pressure | Rain* | Wind** | Luminosity | Snow |
|---|---|---|---|---|---|---|---|
| 1788606917 | 19.44° C | 58% | 1013.9 hPa | 0 mm | - | 129 W/m² | - |
| 1788606324 | 18.89° C | 59% | 1014.1 hPa | 0 mm | - | 156 W/m² | - |
| 1788605717 | 19.44° C | 64% | 1014.2 hPa | 0 mm | - | 214 W/m² | - |
| 1788604516 | 18.89° C | 63% | 1014 hPa | 0 mm | - | 71 W/m² | - |
| 1788603924 | 18.89° C | 66% | 1014.1 hPa | 0 mm | - | 112 W/m² | - |
| 1788603316 | 18.89° C | 67% | 1014.2 hPa | 0 mm | - | 95 W/m² | - |
| 1788602724 | 18.89° C | 67% | 1014.2 hPa | 0 mm | - | 87 W/m² | - |
| 1788602116 | 18.89° C | 67% | 1013.9 hPa | 0 mm | - | 119 W/m² | - |
| 1788601524 | 18.33° C | 68% | 1014 hPa | 0 mm | - | 146 W/m² | - |
| 1788600916 | 18.33° C | 68% | 1014.1 hPa | 0 mm | - | 92 W/m² | - |
| 1788600324 | 17.78° C | 70% | 1014.1 hPa | 0 mm | - | 100 W/m² | - |
| 1788599716 | 17.78° C | 72% | 1013.8 hPa | 0 mm | - | 80 W/m² | - |
| 1788599124 | 17.22° C | 73% | 1013.7 hPa | 0 mm | - | 63 W/m² | - |
| 1788598516 | 17.22° C | 73% | 1013.7 hPa | 0 mm | - | 73 W/m² | - |
| 1788597924 | 17.22° C | 76% | 1013.5 hPa | 0 mm | - | 75 W/m² | - |
| 1788597316 | 17.22° C | 77% | 1013.7 hPa | 0 mm | - | 54 W/m² | - |
| 1788596724 | 17.22° C | 79% | 1013.5 hPa | 0 mm | - | 78 W/m² | - |
| 1788596116 | 16.67° C | 77% | 1013.7 hPa | 0 mm | - | 85 W/m² | - |
| 1788595524 | 16.67° C | 82% | 1013.4 hPa | 0 mm | - | 93 W/m² | - |
| 1788594916 | 16.11° C | 84% | 1013.3 hPa | 0 mm | - | 69 W/m² | - |
| 1788594324 | 16.11° C | 86% | 1013.3 hPa | 0 mm | - | 90 W/m² | - |
| 1788593716 | 16.11° C | 87% | 1013.3 hPa | 0 mm | - | 55 W/m² | - |
| 1788593124 | 16.11° C | 88% | 1013.1 hPa | 0 mm | - | 76 W/m² | - |
| 1788592516 | 15.56° C | 89% | 1013.2 hPa | 0 mm | - | 81 W/m² | - |
| 1788591924 | 15.56° C | 89% | 1013.2 hPa | 0 mm | - | 72 W/m² | - |
* Rain latest hour (hover to see other rain measurements)
** Current wind speed in m/s (hover to see current wind gust speed)